Tracking 29069 objects as of 18-Jul-2024
HD Live streaming from Space Station
objects crossing your sky now

STARLINK-5577

Track STARLINK-5577 now!
10-day predictions
STARLINK-5577 is classified as:


NORAD ID: 55751
Int'l Code: 2023-028L
Perigee: 577.2 km
Apogee: 581.2 km
Inclination: 70.0 °
Period: 96.1 minutes
Semi major axis: 6950 km
RCS: Unknown
Launch date: March 3, 2023
Source: United States (US)
Launch site: AIR FORCE WESTERN TEST RANGE (AFWTR)
Your satellite tracking list
Your tracking list is empty




NASA's NSSDC Master Catalog

Two Line Element Set (TLE):
1 55751U 23028L   24199.75614234 -.00000171  00000-0 -65797-5 0  9995
2 55751  70.0010 317.1927 0002895 266.4250  93.6578 14.98329421 76174
Source of the keplerian elements: AFSPC